Regional Weather Roundup
Issued by NWS

Home | Current Version | Previous Version | Graphics & Text | Print | Product List | Glossary On
Versions: 1 2 3 4 5 6 7 8 9 10 11 12 13 14 15 16 17 18 19 20 21 22 23 24 25 26 27
000
ASUS45 KBOU 271707
RWRCO

WEATHER ROUNDUP FOR COLORADO
NATIONAL WEATHER SERVICE DENVER/BOULDER CO
1000 AM MST MON FEB 27 2017

NOTE: "FAIR" INDICATES FEW OR NO CLOUDS BELOW 12000 FEET WITH NO
SIGNIFICANT WEATHER AND/OR OBSTRUCTIONS TO VISIBILITY.

COZ001>005-013-030-031-271800-
...NORTHWEST COLORADO...

CITY           SKY/WX    TMP DP  RH WIND       PRES   REMARKS
CRAIG          CLOUDY    37  20  50 SW21G37   29.61S
HAYDEN         PTSUNNY   36  18  48 SW21G30   29.61S
MEEKER         CLOUDY    36  24  62 SW22G31   29.63S
MOUNT WERNER   NOT AVBL
STEAMBOAT SPGS CLOUDY    22  12  67 N6        29.62S WCI  14
WALDEN         NOT AVBL
$$

COZ006>008-011-271800-
...WEST CENTRAL VALLEYS...

CITY           SKY/WX    TMP DP  RH WIND       PRES   REMARKS
GRAND JUNCTION CLOUDY    43  26  51 S13       29.71S
MONTROSE       PTSUNNY   41  19  41 VRB5      29.75F
EAGLE          PTSUNNY   37  18  44 SW24      29.69
RIFLE          CLOUDY    42  24  49 MISG      29.69S
DELTA          PTSUNNY   46  24  40 W14G21    29.75F
NUCLA          CLOUDY    37  27  65 SW10G21   29.81F
$$

COZ017>023-064>068-271800-
...SOUTHWEST COLORADO...

CITY           SKY/WX    TMP DP  RH WIND       PRES   REMARKS
DURANGO        CLOUDY    33  25  72 VRB3      29.88F
CORTEZ         CLOUDY    37  27  67 SE13      29.86R
PAGOSA SPRINGS LGT SNOW  29  26  90 S3        29.89F
TELLURIDE      FAIR      29  13  52 S13G31    29.76S WCI  18
WOLF CREEK PAS HVY SNOW  12  10  92 S35G41    29.79F VSB<1/4 WCI -10
$$

COZ009-010-012-014-032>034-037-058>063-271800-
...CENTRAL COLORADO...

CITY           SKY/WX    TMP DP  RH WIND       PRES   REMARKS
ASPEN          CLOUDY    33  13  43 S22       29.67S WCI  21
BUENA VISTA    FAIR      35  10  36 SE14G25   29.71F WCI  26
COPPER MTN     FAIR      19   5  53 S20G31    29.65S HAZE    WCI   4
BERTHOUD PASS  FAIR      10   0  61 W37G52    29.58R WCI -14
COTTONWOOD PAS PTSUNNY   30  10  43 NE3       29.71R
GUNNISON       FAIR       8   0  69 S5        29.81F WCI   0
KREMMLING      CLOUDY    28  12  50 SE3       29.68F
LEADVILLE      FAIR      21   2  43 S14G24    29.66F WCI   8
MONARCH PASS     N/A     14  10  85 SW37G49   29.78F WCI  -9
SALIDA         FAIR      37  14  39 S12G23    29.81F
SUNLIGHT       NOT AVBL
WILKERSON PASS FAIR      19   9  63 SW17G32   29.67S WCI   4
$$

COZ069>075-271800-
...SAN LUIS VALLEY/SANGRE DE CRISTO MOUNTAINS...

CITY           SKY/WX    TMP DP  RH WIND       PRES   REMARKS
ALAMOSA        FAIR      38  16  40 SW28G36   29.80F
LA VETA PASS   PTSUNNY   27  14  59 S31G58    29.76F WCI  10
SAGUACHE       FAIR      30  14  51 SE5       29.80F WCI  25
$$

COZ035-036-038>040-271800-
...NORTHERN COLORADO FRONT RANGE...

CITY           SKY/WX    TMP DP  RH WIND       PRES   REMARKS
DENVER INTL AP FAIR      47   9  21 S23       29.62F
DMNS CITY PARK   N/A     46   6  19 S8G16     29.62F
AURORA         MOSUNNY   46   9  22 S22       29.63F
FRONT RANGE AP NOT AVBL
ERIE MUNI ARPT FAIR      38  17  42 N7        29.64F
BOULDER MUN AP FAIR      34  14  44 CALM      29.63F
CENTENNIAL     FAIR      45   9  23 S24G30    29.63F
BROOMFIELD     MOSUNNY   39   7  26 CALM      29.63F
FORT COLLINS   FAIR      30  19  63 N8        29.66F WCI  22
LONGMONT       NOT AVBL
$$

COZ041-046-047-076>085-087-088-271800-
...PIKES PEAK/PALMER DIVIDE AND SOUTHERN FOOTHILLS...

CITY           SKY/WX    TMP DP  RH WIND       PRES   REMARKS
COLO. SPRINGS  FAIR      40   5  23 S21       29.70S
A. F. ACADEMY  FAIR      38   4  24 SE12      29.67F
SCHRIEVER AFB  FAIR      40   5  23 S17G23    29.70F
ELLICOTT       NOT AVBL
FALCON         FAIR      40   6  24 S22G29    29.69F
FORT CARSON    FAIR      38   4  24 SE24G30   29.69S
LIMON          FAIR      39  12  33 SE8       29.70F
MONUMENT HILL  FAIR      37   7  28 SE13      29.67F
TRINIDAD       FAIR      51  10  19 SW31G43   29.74F
$$

COZ042>045-048>051-090-091-271800-
...NORTHEAST COLORADO...

CITY           SKY/WX    TMP DP  RH WIND       PRES   REMARKS
GREELEY ARPT   NOT AVBL
AKRON          FAIR      45   6  20 S16       29.68F
BURLINGTON     FAIR      47  12  24 SW14      29.72F
WRAY           NOT AVBL
STERLING       FAIR      32  21  64 W7        29.69F WCI  26
HOLYOKE        FAIR      43  23  45 S3        29.72S
FORT MORGAN    FAIR      37  16  43 S5        29.68F
$$

COZ086-089-092>099-271800-
...SOUTHEAST COLORADO...

CITY           SKY/WX    TMP DP  RH WIND       PRES   REMARKS
PUEBLO         FAIR      35   7  31 CALM      29.73F
LA JUNTA       FAIR      38  11  32 CALM      29.75F
LAMAR          FAIR      40  14  34 CALM      29.75F
SPRINGFIELD      N/A     51  15  23 SW14      29.77R
$$




USA.gov is the U.S. government's official web portal to all federal, state and local government web resources and services.